Time,TemperatureF,DewpointF,PressureIn,WindDirection,WindDirectionDegrees,WindSpeedMPH,WindSpeedGustMPH,Humidity,HourlyPrecipIn,Conditions,Clouds,dailyrainin,SoftwareType,DateUTC
2013-02-06 00:00:00,38.7,29.5,29.63,North,-999,-999.0,-999.0,69,-99.99,,,-99.99,meteohub,2013-02-06 05:00:00,
2013-02-06 00:03:00,38.7,29.7,29.63,North,-999,-999.0,-999.0,70,-99.99,,,-99.99,meteohub,2013-02-06 05:03:00,
2013-02-06 00:08:00,38.7,29.7,29.63,North,-999,-999.0,-999.0,70,-99.99,,,-99.99,meteohub,2013-02-06 05:08:00,
2013-02-06 00:13:00,38.5,29.7,29.63,North,-999,-999.0,-999.0,70,-99.99,,,-99.99,meteohub,2013-02-06 05:13:00,
2013-02-06 00:18:00,38.3,29.5,29.63,North,-999,-999.0,-999.0,70,-99.99,,,-99.99,meteohub,2013-02-06 05:18:00,
2013-02-06 00:23:00,38.1,29.3,29.63,North,-999,-999.0,-999.0,70,-99.99,,,-99.99,meteohub,2013-02-06 05:23:00,
2013-02-06 00:28:00,38.1,29.7,29.63,North,-999,-999.0,-999.0,71,-99.99,,,-99.99,meteohub,2013-02-06 05:28:00,
2013-02-06 00:33:00,37.9,29.5,29.63,North,-999,-999.0,-999.0,71,-99.99,,,-99.99,meteohub,2013-02-06 05:33:00,
2013-02-06 00:38:00,37.8,29.3,29.63,North,-999,-999.0,-999.0,71,-99.99,,,-99.99,meteohub,2013-02-06 05:38:00,
2013-02-06 00:43:00,37.8,29.3,29.63,North,-999,-999.0,-999.0,71,-99.99,,,-99.99,meteohub,2013-02-06 05:43:00,
2013-02-06 00:49:00,37.6,29.1,29.63,North,-999,-999.0,-999.0,71,-99.99,,,-99.99,meteohub,2013-02-06 05:49:00,
2013-02-06 00:54:00,37.4,28.9,29.63,North,-999,-999.0,-999.0,71,-99.99,,,-99.99,meteohub,2013-02-06 05:54:00,
2013-02-06 00:59:00,37.4,28.9,29.63,North,-999,-999.0,-999.0,71,-99.99,,,-99.99,meteohub,2013-02-06 05:59:00,
2013-02-06 01:04:00,37.2,29.1,29.63,North,-999,-999.0,-999.0,72,-99.99,,,-99.99,meteohub,2013-02-06 06:04:00,
2013-02-06 01:09:00,37.0,28.9,29.63,North,-999,-999.0,-999.0,72,-99.99,,,-99.99,meteohub,2013-02-06 06:09:00,
2013-02-06 01:14:00,36.7,29.1,29.63,North,-999,-999.0,-999.0,74,-99.99,,,-99.99,meteohub,2013-02-06 06:14:00,
2013-02-06 01:19:00,36.7,29.1,29.63,North,-999,-999.0,-999.0,74,-99.99,,,-99.99,meteohub,2013-02-06 06:19:00,
2013-02-06 01:24:00,36.7,29.1,29.63,North,-999,-999.0,-999.0,74,-99.99,,,-99.99,meteohub,2013-02-06 06:24:00,
2013-02-06 01:29:00,36.7,29.1,29.63,North,-999,-999.0,-999.0,74,-99.99,,,-99.99,meteohub,2013-02-06 06:29:00,
2013-02-06 01:34:00,36.5,28.9,29.63,North,-999,-999.0,-999.0,74,-99.99,,,-99.99,meteohub,2013-02-06 06:34:00,
2013-02-06 01:40:00,36.5,28.9,29.63,North,-999,-999.0,-999.0,74,-99.99,,,-99.99,meteohub,2013-02-06 06:40:00,
2013-02-06 01:45:00,36.3,28.9,29.63,North,-999,-999.0,-999.0,74,-99.99,,,-99.99,meteohub,2013-02-06 06:45:00,
2013-02-06 01:50:00,36.1,28.8,29.63,North,-999,-999.0,-999.0,74,-99.99,,,-99.99,meteohub,2013-02-06 06:50:00,
2013-02-06 01:55:00,36.1,28.8,29.63,North,-999,-999.0,-999.0,74,-99.99,,,-99.99,meteohub,2013-02-06 06:55:00,
2013-02-06 02:00:00,36.0,28.8,29.63,North,-999,-999.0,-999.0,75,-99.99,,,-99.99,meteohub,2013-02-06 07:00:00,
2013-02-06 02:05:00,36.0,28.8,29.63,North,-999,-999.0,-999.0,75,-99.99,,,-99.99,meteohub,2013-02-06 07:05:00,
2013-02-06 02:10:00,35.6,28.8,29.63,North,-999,-999.0,-999.0,76,-99.99,,,-99.99,meteohub,2013-02-06 07:10:00,
2013-02-06 02:15:00,35.6,28.8,29.63,North,-999,-999.0,-999.0,76,-99.99,,,-99.99,meteohub,2013-02-06 07:15:00,
2013-02-06 02:20:00,35.6,28.8,29.63,North,-999,-999.0,-999.0,76,-99.99,,,-99.99,meteohub,2013-02-06 07:20:00,
2013-02-06 02:25:00,35.6,28.8,29.63,North,-999,-999.0,-999.0,76,-99.99,,,-99.99,meteohub,2013-02-06 07:25:00,
2013-02-06 02:31:00,35.4,28.9,29.63,North,-999,-999.0,-999.0,77,-99.99,,,-99.99,meteohub,2013-02-06 07:31:00,
2013-02-06 02:36:00,35.4,28.9,29.63,North,-999,-999.0,-999.0,77,-99.99,,,-99.99,meteohub,2013-02-06 07:36:00,
2013-02-06 02:41:00,35.2,28.8,29.63,North,-999,-999.0,-999.0,77,-99.99,,,-99.99,meteohub,2013-02-06 07:41:00,
2013-02-06 02:46:00,35.2,28.8,29.63,North,-999,-999.0,-999.0,77,-99.99,,,-99.99,meteohub,2013-02-06 07:46:00,
2013-02-06 02:51:00,35.2,28.8,29.63,North,-999,-999.0,-999.0,77,-99.99,,,-99.99,meteohub,2013-02-06 07:51:00,
2013-02-06 02:56:00,35.1,28.6,29.63,North,-999,-999.0,-999.0,77,-99.99,,,-99.99,meteohub,2013-02-06 07:56:00,
2013-02-06 03:01:00,35.1,28.6,29.63,North,-999,-999.0,-999.0,77,-99.99,,,-99.99,meteohub,2013-02-06 08:01:00,
2013-02-06 03:06:00,34.9,28.4,29.66,North,-999,-999.0,-999.0,77,-99.99,,,-99.99,meteohub,2013-02-06 08:06:00,
2013-02-06 03:11:00,34.9,28.4,29.66,North,-999,-999.0,-999.0,77,-99.99,,,-99.99,meteohub,2013-02-06 08:11:00,
2013-02-06 03:16:00,34.7,28.2,29.66,North,-999,-999.0,-999.0,77,-99.99,,,-99.99,meteohub,2013-02-06 08:16:00,
2013-02-06 03:22:00,34.5,28.0,29.63,North,-999,-999.0,-999.0,77,-99.99,,,-99.99,meteohub,2013-02-06 08:22:00,
2013-02-06 03:27:00,34.5,28.0,29.63,North,-999,-999.0,-999.0,77,-99.99,,,-99.99,meteohub,2013-02-06 08:27:00,
2013-02-06 03:32:00,34.5,28.0,29.63,North,-999,-999.0,-999.0,77,-99.99,,,-99.99,meteohub,2013-02-06 08:32:00,
2013-02-06 03:37:00,34.3,28.2,29.63,North,-999,-999.0,-999.0,78,-99.99,,,-99.99,meteohub,2013-02-06 08:37:00,
2013-02-06 03:42:00,34.3,28.2,29.63,North,-999,-999.0,-999.0,78,-99.99,,,-99.99,meteohub,2013-02-06 08:42:00,
2013-02-06 03:47:00,34.3,28.2,29.63,North,-999,-999.0,-999.0,78,-99.99,,,-99.99,meteohub,2013-02-06 08:47:00,
2013-02-06 03:52:00,34.3,28.2,29.63,North,-999,-999.0,-999.0,78,-99.99,,,-99.99,meteohub,2013-02-06 08:52:00,
2013-02-06 03:57:00,34.2,28.0,29.63,North,-999,-999.0,-999.0,78,-99.99,,,-99.99,meteohub,2013-02-06 08:57:00,
2013-02-06 04:02:00,34.0,28.2,29.63,North,-999,-999.0,-999.0,79,-99.99,,,-99.99,meteohub,2013-02-06 09:02:00,
2013-02-06 04:07:00,34.0,28.2,29.63,North,-999,-999.0,-999.0,79,-99.99,,,-99.99,meteohub,2013-02-06 09:07:00,
2013-02-06 04:12:00,34.0,28.2,29.63,North,-999,-999.0,-999.0,79,-99.99,,,-99.99,meteohub,2013-02-06 09:12:00,
2013-02-06 04:17:00,33.8,28.0,29.63,North,-999,-999.0,-999.0,79,-99.99,,,-99.99,meteohub,2013-02-06 09:17:00,
2013-02-06 04:22:00,33.8,28.0,29.66,North,-999,-999.0,-999.0,79,-99.99,,,-99.99,meteohub,2013-02-06 09:22:00,
2013-02-06 04:27:00,33.8,28.0,29.66,North,-999,-999.0,-999.0,79,-99.99,,,-99.99,meteohub,2013-02-06 09:27:00,
2013-02-06 04:32:00,33.8,28.0,29.66,North,-999,-999.0,-999.0,79,-99.99,,,-99.99,meteohub,2013-02-06 09:32:00,
2013-02-06 04:37:00,33.6,28.2,29.66,North,-999,-999.0,-999.0,80,-99.99,,,-99.99,meteohub,2013-02-06 09:37:00,
2013-02-06 04:42:00,33.6,28.4,29.66,North,-999,-999.0,-999.0,81,-99.99,,,-99.99,meteohub,2013-02-06 09:42:00,
2013-02-06 04:47:00,33.4,28.6,29.66,North,-999,-999.0,-999.0,82,-99.99,,,-99.99,meteohub,2013-02-06 09:47:00,
2013-02-06 04:52:00,33.3,28.4,29.66,North,-999,-999.0,-999.0,82,-99.99,,,-99.99,meteohub,2013-02-06 09:52:00,
2013-02-06 04:57:00,33.3,28.4,29.66,North,-999,-999.0,-999.0,82,-99.99,,,-99.99,meteohub,2013-02-06 09:57:00,
2013-02-06 05:02:00,33.1,28.6,29.66,North,-999,-999.0,-999.0,83,-99.99,,,-99.99,meteohub,2013-02-06 10:02:00,
2013-02-06 05:07:00,33.1,28.2,29.66,North,-999,-999.0,-999.0,82,-99.99,,,-99.99,meteohub,2013-02-06 10:07:00,
2013-02-06 05:12:00,33.1,28.2,29.66,North,-999,-999.0,-999.0,82,-99.99,,,-99.99,meteohub,2013-02-06 10:12:00,
2013-02-06 05:17:00,33.1,28.2,29.66,North,-999,-999.0,-999.0,82,-99.99,,,-99.99,meteohub,2013-02-06 10:17:00,
2013-02-06 05:22:00,33.1,27.9,29.66,North,-999,-999.0,-999.0,81,-99.99,,,-99.99,meteohub,2013-02-06 10:22:00,
2013-02-06 05:27:00,32.9,27.7,29.66,North,-999,-999.0,-999.0,81,-99.99,,,-99.99,meteohub,2013-02-06 10:27:00,
2013-02-06 05:32:00,32.7,27.9,29.66,North,-999,-999.0,-999.0,82,-99.99,,,-99.99,meteohub,2013-02-06 10:32:00,
2013-02-06 05:37:00,32.7,27.9,29.69,North,-999,-999.0,-999.0,82,-99.99,,,-99.99,meteohub,2013-02-06 10:37:00,
2013-02-06 05:42:00,32.7,27.9,29.69,North,-999,-999.0,-999.0,82,-99.99,,,-99.99,meteohub,2013-02-06 10:42:00,
2013-02-06 05:47:00,32.5,27.7,29.69,North,-999,-999.0,-999.0,82,-99.99,,,-99.99,meteohub,2013-02-06 10:47:00,
2013-02-06 05:52:00,32.5,27.7,29.69,North,-999,-999.0,-999.0,82,-99.99,,,-99.99,meteohub,2013-02-06 10:52:00,
2013-02-06 05:57:00,32.5,27.7,29.69,North,-999,-999.0,-999.0,82,-99.99,,,-99.99,meteohub,2013-02-06 10:57:00,
2013-02-06 06:02:00,32.5,27.7,29.69,North,-999,-999.0,-999.0,82,-99.99,,,-99.99,meteohub,2013-02-06 11:02:00,
2013-02-06 06:07:00,32.5,27.7,29.69,North,-999,-999.0,-999.0,82,-99.99,,,-99.99,meteohub,2013-02-06 11:07:00,
2013-02-06 06:12:00,32.5,28.0,29.69,North,-999,-999.0,-999.0,83,-99.99,,,-99.99,meteohub,2013-02-06 11:12:00,
2013-02-06 06:17:00,32.5,28.0,29.69,North,-999,-999.0,-999.0,83,-99.99,,,-99.99,meteohub,2013-02-06 11:17:00,
2013-02-06 06:22:00,32.4,28.0,29.69,North,-999,-999.0,-999.0,84,-99.99,,,-99.99,meteohub,2013-02-06 11:22:00,
2013-02-06 06:27:00,32.4,28.0,29.69,North,-999,-999.0,-999.0,84,-99.99,,,-99.99,meteohub,2013-02-06 11:27:00,
2013-02-06 06:33:00,32.4,28.0,29.69,North,-999,-999.0,-999.0,84,-99.99,,,-99.99,meteohub,2013-02-06 11:33:00,
2013-02-06 06:38:00,32.2,27.7,29.69,North,-999,-999.0,-999.0,83,-99.99,,,-99.99,meteohub,2013-02-06 11:38:00,
2013-02-06 06:43:00,32.2,27.7,29.69,North,-999,-999.0,-999.0,83,-99.99,,,-99.99,meteohub,2013-02-06 11:43:00,
2013-02-06 06:48:00,32.2,27.7,29.69,North,-999,-999.0,-999.0,83,-99.99,,,-99.99,meteohub,2013-02-06 11:48:00,
2013-02-06 06:53:00,32.2,27.7,29.72,North,-999,-999.0,-999.0,83,-99.99,,,-99.99,meteohub,2013-02-06 11:53:00,
2013-02-06 06:58:00,32.2,27.7,29.72,North,-999,-999.0,-999.0,83,-99.99,,,-99.99,meteohub,2013-02-06 11:58:00,
2013-02-06 07:03:00,32.2,27.7,29.72,North,-999,-999.0,-999.0,83,-99.99,,,-99.99,meteohub,2013-02-06 12:03:00,
2013-02-06 07:09:00,31.8,27.3,29.75,North,-999,-999.0,-999.0,83,-99.99,,,-99.99,meteohub,2013-02-06 12:09:00,
2013-02-06 07:14:00,31.6,27.7,29.75,North,-999,-999.0,-999.0,85,-99.99,,,-99.99,meteohub,2013-02-06 12:14:00,
2013-02-06 07:19:00,31.6,27.7,29.78,North,-999,-999.0,-999.0,85,-99.99,,,-99.99,meteohub,2013-02-06 12:19:00,
2013-02-06 07:24:00,31.8,27.9,29.78,North,-999,-999.0,-999.0,85,-99.99,,,-99.99,meteohub,2013-02-06 12:24:00,
2013-02-06 07:29:00,31.8,27.5,29.78,North,-999,-999.0,-999.0,84,-99.99,,,-99.99,meteohub,2013-02-06 12:29:00,
2013-02-06 07:34:00,31.8,27.9,29.78,North,-999,-999.0,-999.0,85,-99.99,,,-99.99,meteohub,2013-02-06 12:34:00,
2013-02-06 07:39:00,32.0,28.0,29.78,North,-999,-999.0,-999.0,85,-99.99,,,-99.99,meteohub,2013-02-06 12:39:00,
2013-02-06 07:44:00,32.0,28.0,29.78,North,-999,-999.0,-999.0,85,-99.99,,,-99.99,meteohub,2013-02-06 12:44:00,
2013-02-06 07:49:00,32.2,28.2,29.81,North,-999,-999.0,-999.0,85,-99.99,,,-99.99,meteohub,2013-02-06 12:49:00,
2013-02-06 07:55:00,32.4,28.4,29.81,North,-999,-999.0,-999.0,85,-99.99,,,-99.99,meteohub,2013-02-06 12:55:00,
2013-02-06 08:00:00,32.5,28.8,29.81,North,-999,-999.0,-999.0,86,-99.99,,,-99.99,meteohub,2013-02-06 13:00:00,
2013-02-06 08:05:00,32.7,28.8,29.81,North,-999,-999.0,-999.0,85,-99.99,,,-99.99,meteohub,2013-02-06 13:05:00,
2013-02-06 08:10:00,32.9,29.5,29.81,North,-999,-999.0,-999.0,87,-99.99,,,-99.99,meteohub,2013-02-06 13:10:00,
2013-02-06 08:15:00,33.4,30.2,29.81,North,-999,-999.0,-999.0,88,-99.99,,,-99.99,meteohub,2013-02-06 13:15:00,
2013-02-06 08:20:00,33.8,30.6,29.81,North,-999,-999.0,-999.0,88,-99.99,,,-99.99,meteohub,2013-02-06 13:20:00,
2013-02-06 08:25:00,34.3,30.9,29.81,North,-999,-999.0,-999.0,87,-99.99,,,-99.99,meteohub,2013-02-06 13:25:00,
2013-02-06 08:30:00,34.9,31.5,29.81,North,-999,-999.0,-999.0,87,-99.99,,,-99.99,meteohub,2013-02-06 13:30:00,
2013-02-06 08:35:00,35.2,32.0,29.81,North,-999,-999.0,-999.0,88,-99.99,,,-99.99,meteohub,2013-02-06 13:35:00,
2013-02-06 08:41:00,35.8,32.4,29.81,North,-999,-999.0,-999.0,87,-99.99,,,-99.99,meteohub,2013-02-06 13:41:00,
2013-02-06 08:46:00,36.7,33.3,29.81,North,-999,-999.0,-999.0,87,-99.99,,,-99.99,meteohub,2013-02-06 13:46:00,
2013-02-06 08:51:00,37.4,34.0,29.81,North,-999,-999.0,-999.0,87,-99.99,,,-99.99,meteohub,2013-02-06 13:51:00,
2013-02-06 08:56:00,37.9,34.3,29.81,North,-999,-999.0,-999.0,87,-99.99,,,-99.99,meteohub,2013-02-06 13:56:00,
2013-02-06 09:01:00,38.8,35.2,29.81,North,-999,-999.0,-999.0,87,-99.99,,,-99.99,meteohub,2013-02-06 14:01:00,
2013-02-06 09:06:00,39.7,36.1,29.81,North,-999,-999.0,-999.0,87,-99.99,,,-99.99,meteohub,2013-02-06 14:06:00,
2013-02-06 09:11:00,40.6,36.9,29.81,North,-999,-999.0,-999.0,86,-99.99,,,-99.99,meteohub,2013-02-06 14:11:00,
2013-02-06 09:17:00,42.1,37.2,29.81,North,-999,-999.0,-999.0,83,-99.99,,,-99.99,meteohub,2013-02-06 14:17:00,
2013-02-06 09:22:00,42.8,37.8,29.81,North,-999,-999.0,-999.0,82,-99.99,,,-99.99,meteohub,2013-02-06 14:22:00,
2013-02-06 09:27:00,44.2,37.8,29.81,North,-999,-999.0,-999.0,78,-99.99,,,-99.99,meteohub,2013-02-06 14:27:00,
2013-02-06 09:32:00,45.9,37.8,29.81,North,-999,-999.0,-999.0,73,-99.99,,,-99.99,meteohub,2013-02-06 14:32:00,
2013-02-06 09:37:00,46.8,37.9,29.81,North,-999,-999.0,-999.0,71,-99.99,,,-99.99,meteohub,2013-02-06 14:37:00,
2013-02-06 09:42:00,47.7,37.9,29.81,North,-999,-999.0,-999.0,69,-99.99,,,-99.99,meteohub,2013-02-06 14:42:00,
2013-02-06 09:47:00,48.9,37.8,29.81,North,-999,-999.0,-999.0,65,-99.99,,,-99.99,meteohub,2013-02-06 14:47:00,
2013-02-06 09:52:00,49.8,37.8,29.81,North,-999,-999.0,-999.0,63,-99.99,,,-99.99,meteohub,2013-02-06 14:52:00,
2013-02-06 09:57:00,50.5,35.1,29.81,North,-999,-999.0,-999.0,55,-99.99,,,-99.99,meteohub,2013-02-06 14:57:00,
2013-02-06 10:02:00,51.4,36.3,29.81,North,-999,-999.0,-999.0,56,-99.99,,,-99.99,meteohub,2013-02-06 15:02:00,
2013-02-06 10:07:00,52.2,34.7,29.81,North,-999,-999.0,-999.0,51,-99.99,,,-99.99,meteohub,2013-02-06 15:07:00,
2013-02-06 10:12:00,52.5,34.5,29.81,North,-999,-999.0,-999.0,50,-99.99,,,-99.99,meteohub,2013-02-06 15:12:00,
2013-02-06 10:17:00,53.2,33.6,29.81,North,-999,-999.0,-999.0,47,-99.99,,,-99.99,meteohub,2013-02-06 15:17:00,
2013-02-06 10:22:00,54.1,36.0,29.81,North,-999,-999.0,-999.0,50,-99.99,,,-99.99,meteohub,2013-02-06 15:22:00,
2013-02-06 10:27:00,54.9,35.6,29.81,North,-999,-999.0,-999.0,48,-99.99,,,-99.99,meteohub,2013-02-06 15:27:00,
2013-02-06 10:32:00,55.4,35.1,29.81,North,-999,-999.0,-999.0,46,-99.99,,,-99.99,meteohub,2013-02-06 15:32:00,
2013-02-06 10:37:00,55.8,34.2,29.81,North,-999,-999.0,-999.0,44,-99.99,,,-99.99,meteohub,2013-02-06 15:37:00,
2013-02-06 10:42:00,56.7,35.1,29.81,North,-999,-999.0,-999.0,44,-99.99,,,-99.99,meteohub,2013-02-06 15:42:00,
2013-02-06 10:47:00,57.0,34.7,29.81,North,-999,-999.0,-999.0,43,-99.99,,,-99.99,meteohub,2013-02-06 15:47:00,
2013-02-06 10:52:00,57.0,31.6,29.81,North,-999,-999.0,-999.0,38,-99.99,,,-99.99,meteohub,2013-02-06 15:52:00,
2013-02-06 10:57:00,57.6,31.5,29.81,North,-999,-999.0,-999.0,37,-99.99,,,-99.99,meteohub,2013-02-06 15:57:00,
2013-02-06 11:02:00,57.9,31.8,29.81,North,-999,-999.0,-999.0,37,-99.99,,,-99.99,meteohub,2013-02-06 16:02:00,
2013-02-06 11:07:00,58.8,33.3,29.81,North,-999,-999.0,-999.0,38,-99.99,,,-99.99,meteohub,2013-02-06 16:07:00,
2013-02-06 11:12:00,59.7,34.2,29.81,North,-999,-999.0,-999.0,38,-99.99,,,-99.99,meteohub,2013-02-06 16:12:00,
2013-02-06 11:17:00,60.3,34.0,29.81,North,-999,-999.0,-999.0,37,-99.99,,,-99.99,meteohub,2013-02-06 16:17:00,
2013-02-06 11:22:00,60.1,32.4,29.81,North,-999,-999.0,-999.0,35,-99.99,,,-99.99,meteohub,2013-02-06 16:22:00,
2013-02-06 11:27:00,60.6,33.6,29.81,North,-999,-999.0,-999.0,36,-99.99,,,-99.99,meteohub,2013-02-06 16:27:00,
2013-02-06 11:32:00,61.0,32.5,29.81,North,-999,-999.0,-999.0,34,-99.99,,,-99.99,meteohub,2013-02-06 16:32:00,
2013-02-06 11:37:00,61.0,32.5,29.81,North,-999,-999.0,-999.0,34,-99.99,,,-99.99,meteohub,2013-02-06 16:37:00,
2013-02-06 11:42:00,61.3,32.7,29.81,North,-999,-999.0,-999.0,34,-99.99,,,-99.99,meteohub,2013-02-06 16:42:00,
2013-02-06 11:47:00,60.6,32.2,29.81,North,-999,-999.0,-999.0,34,-99.99,,,-99.99,meteohub,2013-02-06 16:47:00,
2013-02-06 11:52:00,60.4,32.0,29.78,North,-999,-999.0,-999.0,34,-99.99,,,-99.99,meteohub,2013-02-06 16:52:00,
2013-02-06 11:57:00,61.3,31.3,29.78,North,-999,-999.0,-999.0,32,-99.99,,,-99.99,meteohub,2013-02-06 16:57:00,
2013-02-06 12:02:00,62.2,33.6,29.78,North,-999,-999.0,-999.0,34,-99.99,,,-99.99,meteohub,2013-02-06 17:02:00,
2013-02-06 12:07:00,63.7,34.2,29.78,North,-999,-999.0,-999.0,33,-99.99,,,-99.99,meteohub,2013-02-06 17:07:00,
2013-02-06 12:12:00,63.0,31.8,29.78,North,-999,-999.0,-999.0,31,-99.99,,,-99.99,meteohub,2013-02-06 17:12:00,
2013-02-06 12:17:00,62.6,31.6,29.78,North,-999,-999.0,-999.0,31,-99.99,,,-99.99,meteohub,2013-02-06 17:17:00,
2013-02-06 12:22:00,63.0,31.8,29.78,North,-999,-999.0,-999.0,31,-99.99,,,-99.99,meteohub,2013-02-06 17:22:00,
2013-02-06 12:27:00,63.9,32.7,29.78,North,-999,-999.0,-999.0,31,-99.99,,,-99.99,meteohub,2013-02-06 17:27:00,
2013-02-06 12:32:00,63.5,30.7,29.78,North,-999,-999.0,-999.0,29,-99.99,,,-99.99,meteohub,2013-02-06 17:32:00,
2013-02-06 12:37:00,63.5,30.7,29.78,North,-999,-999.0,-999.0,29,-99.99,,,-99.99,meteohub,2013-02-06 17:37:00,
2013-02-06 12:42:00,63.5,30.7,29.78,North,-999,-999.0,-999.0,29,-99.99,,,-99.99,meteohub,2013-02-06 17:42:00,
2013-02-06 12:47:00,63.9,31.1,29.78,North,-999,-999.0,-999.0,29,-99.99,,,-99.99,meteohub,2013-02-06 17:47:00,
2013-02-06 12:52:00,63.7,30.0,29.78,North,-999,-999.0,-999.0,28,-99.99,,,-99.99,meteohub,2013-02-06 17:52:00,
2013-02-06 12:57:00,64.4,29.7,29.78,North,-999,-999.0,-999.0,27,-99.99,,,-99.99,meteohub,2013-02-06 17:57:00,
2013-02-06 13:02:00,64.0,29.5,29.78,North,-999,-999.0,-999.0,27,-99.99,,,-99.99,meteohub,2013-02-06 18:02:00,
2013-02-06 13:07:00,63.3,27.9,29.78,North,-999,-999.0,-999.0,26,-99.99,,,-99.99,meteohub,2013-02-06 18:07:00,
2013-02-06 13:12:00,63.5,28.0,29.78,North,-999,-999.0,-999.0,26,-99.99,,,-99.99,meteohub,2013-02-06 18:12:00,
2013-02-06 13:17:00,64.2,29.7,29.78,North,-999,-999.0,-999.0,27,-99.99,,,-99.99,meteohub,2013-02-06 18:17:00,
2013-02-06 13:22:00,64.0,28.6,29.78,North,-999,-999.0,-999.0,26,-99.99,,,-99.99,meteohub,2013-02-06 18:22:00,
2013-02-06 13:27:00,64.2,29.7,29.78,North,-999,-999.0,-999.0,27,-99.99,,,-99.99,meteohub,2013-02-06 18:27:00,
2013-02-06 13:32:00,64.6,29.8,29.78,North,-999,-999.0,-999.0,27,-99.99,,,-99.99,meteohub,2013-02-06 18:32:00,
2013-02-06 13:37:00,64.4,28.8,29.78,North,-999,-999.0,-999.0,26,-99.99,,,-99.99,meteohub,2013-02-06 18:37:00,
2013-02-06 13:42:00,64.2,29.7,29.78,North,-999,-999.0,-999.0,27,-99.99,,,-99.99,meteohub,2013-02-06 18:42:00,
2013-02-06 13:47:00,64.4,29.7,29.78,North,-999,-999.0,-999.0,27,-99.99,,,-99.99,meteohub,2013-02-06 18:47:00,
2013-02-06 13:52:00,64.4,28.8,29.78,North,-999,-999.0,-999.0,26,-99.99,,,-99.99,meteohub,2013-02-06 18:52:00,
2013-02-06 13:57:00,64.4,28.8,29.78,North,-999,-999.0,-999.0,26,-99.99,,,-99.99,meteohub,2013-02-06 18:57:00,
2013-02-06 14:02:00,64.4,28.8,29.78,North,-999,-999.0,-999.0,26,-99.99,,,-99.99,meteohub,2013-02-06 19:02:00,
2013-02-06 14:07:00,63.5,28.0,29.78,North,-999,-999.0,-999.0,26,-99.99,,,-99.99,meteohub,2013-02-06 19:07:00,
2013-02-06 14:12:00,63.9,28.4,29.78,North,-999,-999.0,-999.0,26,-99.99,,,-99.99,meteohub,2013-02-06 19:12:00,
2013-02-06 14:17:00,63.9,28.4,29.78,North,-999,-999.0,-999.0,26,-99.99,,,-99.99,meteohub,2013-02-06 19:17:00,
2013-02-06 14:22:00,63.9,28.4,29.78,North,-999,-999.0,-999.0,26,-99.99,,,-99.99,meteohub,2013-02-06 19:22:00,
2013-02-06 14:27:00,63.9,29.3,29.78,North,-999,-999.0,-999.0,27,-99.99,,,-99.99,meteohub,2013-02-06 19:27:00,
2013-02-06 14:32:00,63.5,28.0,29.78,North,-999,-999.0,-999.0,26,-99.99,,,-99.99,meteohub,2013-02-06 19:32:00,
2013-02-06 14:37:00,63.1,27.7,29.78,North,-999,-999.0,-999.0,26,-99.99,,,-99.99,meteohub,2013-02-06 19:37:00,
2013-02-06 14:42:00,63.0,26.6,29.78,North,-999,-999.0,-999.0,25,-99.99,,,-99.99,meteohub,2013-02-06 19:42:00,
2013-02-06 14:47:00,63.0,26.6,29.78,North,-999,-999.0,-999.0,25,-99.99,,,-99.99,meteohub,2013-02-06 19:47:00,
2013-02-06 14:52:00,62.6,26.4,29.78,North,-999,-999.0,-999.0,25,-99.99,,,-99.99,meteohub,2013-02-06 19:52:00,
2013-02-06 14:57:00,62.6,26.4,29.78,North,-999,-999.0,-999.0,25,-99.99,,,-99.99,meteohub,2013-02-06 19:57:00,
2013-02-06 15:02:00,62.6,26.4,29.78,North,-999,-999.0,-999.0,25,-99.99,,,-99.99,meteohub,2013-02-06 20:02:00,
2013-02-06 15:07:00,62.4,27.1,29.78,North,-999,-999.0,-999.0,26,-99.99,,,-99.99,meteohub,2013-02-06 20:07:00,
2013-02-06 15:12:00,62.6,26.4,29.78,North,-999,-999.0,-999.0,25,-99.99,,,-99.99,meteohub,2013-02-06 20:12:00,
2013-02-06 15:17:00,62.6,26.4,29.78,North,-999,-999.0,-999.0,25,-99.99,,,-99.99,meteohub,2013-02-06 20:17:00,
2013-02-06 15:22:00,62.2,26.1,29.78,North,-999,-999.0,-999.0,25,-99.99,,,-99.99,meteohub,2013-02-06 20:22:00,
2013-02-06 15:27:00,62.1,25.9,29.78,North,-999,-999.0,-999.0,25,-99.99,,,-99.99,meteohub,2013-02-06 20:27:00,
2013-02-06 15:32:00,61.9,25.7,29.78,North,-999,-999.0,-999.0,25,-99.99,,,-99.99,meteohub,2013-02-06 20:32:00,
2013-02-06 15:37:00,61.7,25.5,29.78,North,-999,-999.0,-999.0,25,-99.99,,,-99.99,meteohub,2013-02-06 20:37:00,
2013-02-06 15:42:00,61.5,25.3,29.78,North,-999,-999.0,-999.0,25,-99.99,,,-99.99,meteohub,2013-02-06 20:42:00,
2013-02-06 15:47:00,61.3,25.3,29.78,North,-999,-999.0,-999.0,25,-99.99,,,-99.99,meteohub,2013-02-06 20:47:00,
2013-02-06 15:52:00,61.2,25.2,29.81,North,-999,-999.0,-999.0,25,-99.99,,,-99.99,meteohub,2013-02-06 20:52:00,
2013-02-06 15:57:00,61.0,25.0,29.81,North,-999,-999.0,-999.0,25,-99.99,,,-99.99,meteohub,2013-02-06 20:57:00,
2013-02-06 16:02:00,60.8,24.8,29.81,North,-999,-999.0,-999.0,25,-99.99,,,-99.99,meteohub,2013-02-06 21:02:00,
2013-02-06 16:07:00,60.6,24.6,29.78,North,-999,-999.0,-999.0,25,-99.99,,,-99.99,meteohub,2013-02-06 21:07:00,
2013-02-06 16:12:00,60.4,24.4,29.78,North,-999,-999.0,-999.0,25,-99.99,,,-99.99,meteohub,2013-02-06 21:12:00,
2013-02-06 16:17:00,60.3,24.4,29.78,North,-999,-999.0,-999.0,25,-99.99,,,-99.99,meteohub,2013-02-06 21:17:00,
2013-02-06 16:22:00,60.1,24.3,29.78,North,-999,-999.0,-999.0,25,-99.99,,,-99.99,meteohub,2013-02-06 21:22:00,
2013-02-06 16:27:00,59.9,24.1,29.78,North,-999,-999.0,-999.0,25,-99.99,,,-99.99,meteohub,2013-02-06 21:27:00,
2013-02-06 16:32:00,59.7,24.8,29.78,North,-999,-999.0,-999.0,26,-99.99,,,-99.99,meteohub,2013-02-06 21:32:00,
2013-02-06 16:37:00,59.5,24.6,29.81,North,-999,-999.0,-999.0,26,-99.99,,,-99.99,meteohub,2013-02-06 21:37:00,
2013-02-06 16:42:00,59.5,24.6,29.81,North,-999,-999.0,-999.0,26,-99.99,,,-99.99,meteohub,2013-02-06 21:42:00,
2013-02-06 16:47:00,59.2,24.4,29.81,North,-999,-999.0,-999.0,26,-99.99,,,-99.99,meteohub,2013-02-06 21:47:00,
2013-02-06 16:52:00,58.8,24.1,29.81,North,-999,-999.0,-999.0,26,-99.99,,,-99.99,meteohub,2013-02-06 21:52:00,
2013-02-06 16:57:00,58.6,23.9,29.81,North,-999,-999.0,-999.0,26,-99.99,,,-99.99,meteohub,2013-02-06 21:57:00,
2013-02-06 17:02:00,58.3,23.5,29.81,North,-999,-999.0,-999.0,26,-99.99,,,-99.99,meteohub,2013-02-06 22:02:00,
2013-02-06 17:07:00,58.1,23.5,29.81,North,-999,-999.0,-999.0,26,-99.99,,,-99.99,meteohub,2013-02-06 22:07:00,
2013-02-06 17:12:00,57.7,24.1,29.81,North,-999,-999.0,-999.0,27,-99.99,,,-99.99,meteohub,2013-02-06 22:12:00,
2013-02-06 17:17:00,57.4,23.7,29.81,North,-999,-999.0,-999.0,27,-99.99,,,-99.99,meteohub,2013-02-06 22:17:00,
2013-02-06 17:22:00,56.8,23.4,29.81,North,-999,-999.0,-999.0,27,-99.99,,,-99.99,meteohub,2013-02-06 22:22:00,
2013-02-06 17:27:00,56.7,23.2,29.81,North,-999,-999.0,-999.0,27,-99.99,,,-99.99,meteohub,2013-02-06 22:27:00,
2013-02-06 17:32:00,56.3,22.8,29.81,North,-999,-999.0,-999.0,27,-99.99,,,-99.99,meteohub,2013-02-06 22:32:00,
2013-02-06 17:37:00,55.9,23.4,29.81,North,-999,-999.0,-999.0,28,-99.99,,,-99.99,meteohub,2013-02-06 22:37:00,
2013-02-06 17:42:00,55.6,23.0,29.81,North,-999,-999.0,-999.0,28,-99.99,,,-99.99,meteohub,2013-02-06 22:42:00,
2013-02-06 17:47:00,55.2,22.8,29.81,North,-999,-999.0,-999.0,28,-99.99,,,-99.99,meteohub,2013-02-06 22:47:00,
2013-02-06 17:52:00,54.7,23.2,29.84,North,-999,-999.0,-999.0,29,-99.99,,,-99.99,meteohub,2013-02-06 22:52:00,
2013-02-06 17:57:00,54.3,22.8,29.84,North,-999,-999.0,-999.0,29,-99.99,,,-99.99,meteohub,2013-02-06 22:57:00,
2013-02-06 18:02:00,53.8,22.3,29.84,North,-999,-999.0,-999.0,29,-99.99,,,-99.99,meteohub,2013-02-06 23:02:00,
2013-02-06 18:07:00,53.2,22.6,29.84,North,-999,-999.0,-999.0,30,-99.99,,,-99.99,meteohub,2013-02-06 23:07:00,
2013-02-06 18:12:00,52.9,22.3,29.84,North,-999,-999.0,-999.0,30,-99.99,,,-99.99,meteohub,2013-02-06 23:12:00,
2013-02-06 18:17:00,52.3,22.6,29.84,North,-999,-999.0,-999.0,31,-99.99,,,-99.99,meteohub,2013-02-06 23:17:00,
2013-02-06 18:22:00,51.6,22.1,29.84,North,-999,-999.0,-999.0,31,-99.99,,,-99.99,meteohub,2013-02-06 23:22:00,
2013-02-06 18:27:00,51.4,22.6,29.84,North,-999,-999.0,-999.0,32,-99.99,,,-99.99,meteohub,2013-02-06 23:27:00,
2013-02-06 18:32:00,50.9,22.8,29.84,North,-999,-999.0,-999.0,33,-99.99,,,-99.99,meteohub,2013-02-06 23:32:00,
2013-02-06 18:37:00,50.2,22.3,29.84,North,-999,-999.0,-999.0,33,-99.99,,,-99.99,meteohub,2013-02-06 23:37:00,
2013-02-06 18:42:00,49.8,22.6,29.84,North,-999,-999.0,-999.0,34,-99.99,,,-99.99,meteohub,2013-02-06 23:42:00,
2013-02-06 18:47:00,49.5,23.0,29.84,North,-999,-999.0,-999.0,35,-99.99,,,-99.99,meteohub,2013-02-06 23:47:00,
2013-02-06 18:52:00,48.9,23.2,29.84,North,-999,-999.0,-999.0,36,-99.99,,,-99.99,meteohub,2013-02-06 23:52:00,
2013-02-06 18:57:00,48.7,23.7,29.84,North,-999,-999.0,-999.0,37,-99.99,,,-99.99,meteohub,2013-02-06 23:57:00,
2013-02-06 19:02:00,48.4,23.4,29.84,North,-999,-999.0,-999.0,37,-99.99,,,-99.99,meteohub,2013-02-07 00:02:00,
2013-02-06 19:07:00,48.0,23.0,29.87,North,-999,-999.0,-999.0,37,-99.99,,,-99.99,meteohub,2013-02-07 00:07:00,
2013-02-06 19:12:00,47.8,23.5,29.87,North,-999,-999.0,-999.0,38,-99.99,,,-99.99,meteohub,2013-02-07 00:12:00,
2013-02-06 19:17:00,47.5,23.2,29.87,North,-999,-999.0,-999.0,38,-99.99,,,-99.99,meteohub,2013-02-07 00:17:00,
2013-02-06 19:22:00,47.1,22.8,29.87,North,-999,-999.0,-999.0,38,-99.99,,,-99.99,meteohub,2013-02-07 00:22:00,
2013-02-06 19:27:00,46.9,22.6,29.87,North,-999,-999.0,-999.0,38,-99.99,,,-99.99,meteohub,2013-02-07 00:27:00,
2013-02-06 19:32:00,46.4,22.3,29.87,North,-999,-999.0,-999.0,38,-99.99,,,-99.99,meteohub,2013-02-07 00:32:00,
2013-02-06 19:37:00,46.2,22.6,29.87,North,-999,-999.0,-999.0,39,-99.99,,,-99.99,meteohub,2013-02-07 00:37:00,
2013-02-06 19:42:00,46.0,22.5,29.87,North,-999,-999.0,-999.0,39,-99.99,,,-99.99,meteohub,2013-02-07 00:42:00,
2013-02-06 19:47:00,45.5,22.6,29.87,North,-999,-999.0,-999.0,40,-99.99,,,-99.99,meteohub,2013-02-07 00:47:00,
2013-02-06 19:52:00,45.3,22.5,29.87,North,-999,-999.0,-999.0,40,-99.99,,,-99.99,meteohub,2013-02-07 00:52:00,
2013-02-06 19:57:00,45.1,22.8,29.87,North,-999,-999.0,-999.0,41,-99.99,,,-99.99,meteohub,2013-02-07 00:57:00,
2013-02-06 20:02:00,45.0,22.8,29.87,North,-999,-999.0,-999.0,41,-99.99,,,-99.99,meteohub,2013-02-07 01:02:00,
2013-02-06 20:07:00,44.6,23.0,29.87,North,-999,-999.0,-999.0,42,-99.99,,,-99.99,meteohub,2013-02-07 01:07:00,
2013-02-06 20:12:00,44.4,22.8,29.87,North,-999,-999.0,-999.0,42,-99.99,,,-99.99,meteohub,2013-02-07 01:12:00,
2013-02-06 20:17:00,44.1,22.5,29.87,North,-999,-999.0,-999.0,42,-99.99,,,-99.99,meteohub,2013-02-07 01:17:00,
2013-02-06 20:22:00,43.7,22.1,29.87,North,-999,-999.0,-999.0,42,-99.99,,,-99.99,meteohub,2013-02-07 01:22:00,
2013-02-06 20:27:00,43.5,21.9,29.87,North,-999,-999.0,-999.0,42,-99.99,,,-99.99,meteohub,2013-02-07 01:27:00,
2013-02-06 20:32:00,43.3,22.5,29.87,North,-999,-999.0,-999.0,43,-99.99,,,-99.99,meteohub,2013-02-07 01:32:00,
2013-02-06 20:37:00,43.0,22.1,29.87,North,-999,-999.0,-999.0,43,-99.99,,,-99.99,meteohub,2013-02-07 01:37:00,
2013-02-06 20:42:00,42.8,21.9,29.87,North,-999,-999.0,-999.0,43,-99.99,,,-99.99,meteohub,2013-02-07 01:42:00,
2013-02-06 20:47:00,42.6,22.3,29.87,North,-999,-999.0,-999.0,44,-99.99,,,-99.99,meteohub,2013-02-07 01:47:00,
2013-02-06 20:52:00,42.3,22.5,29.90,North,-999,-999.0,-999.0,45,-99.99,,,-99.99,meteohub,2013-02-07 01:52:00,
2013-02-06 20:57:00,42.1,22.3,29.90,North,-999,-999.0,-999.0,45,-99.99,,,-99.99,meteohub,2013-02-07 01:57:00,
2013-02-06 21:02:00,41.9,22.1,29.90,North,-999,-999.0,-999.0,45,-99.99,,,-99.99,meteohub,2013-02-07 02:02:00,
2013-02-06 21:07:00,41.7,22.5,29.90,North,-999,-999.0,-999.0,46,-99.99,,,-99.99,meteohub,2013-02-07 02:07:00,
2013-02-06 21:12:00,41.5,23.4,29.90,North,-999,-999.0,-999.0,48,-99.99,,,-99.99,meteohub,2013-02-07 02:12:00,
2013-02-06 21:17:00,41.4,23.7,29.90,North,-999,-999.0,-999.0,49,-99.99,,,-99.99,meteohub,2013-02-07 02:17:00,
2013-02-06 21:22:00,41.2,23.5,29.90,North,-999,-999.0,-999.0,49,-99.99,,,-99.99,meteohub,2013-02-07 02:22:00,
2013-02-06 21:27:00,40.8,23.2,29.90,North,-999,-999.0,-999.0,49,-99.99,,,-99.99,meteohub,2013-02-07 02:27:00,
2013-02-06 21:32:00,40.6,23.0,29.90,North,-999,-999.0,-999.0,49,-99.99,,,-99.99,meteohub,2013-02-07 02:32:00,
2013-02-06 21:37:00,40.5,22.8,29.90,North,-999,-999.0,-999.0,49,-99.99,,,-99.99,meteohub,2013-02-07 02:37:00,
2013-02-06 21:43:00,40.3,22.6,29.90,North,-999,-999.0,-999.0,49,-99.99,,,-99.99,meteohub,2013-02-07 02:43:00,
2013-02-06 21:48:00,40.3,23.2,29.90,North,-999,-999.0,-999.0,50,-99.99,,,-99.99,meteohub,2013-02-07 02:48:00,
2013-02-06 21:53:00,40.1,23.0,29.90,North,-999,-999.0,-999.0,50,-99.99,,,-99.99,meteohub,2013-02-07 02:53:00,
2013-02-06 21:58:00,39.9,23.7,29.90,North,-999,-999.0,-999.0,52,-99.99,,,-99.99,meteohub,2013-02-07 02:58:00,
2013-02-06 22:03:00,39.9,23.4,29.90,North,-999,-999.0,-999.0,51,-99.99,,,-99.99,meteohub,2013-02-07 03:03:00,
2013-02-06 22:08:00,39.7,23.2,29.87,North,-999,-999.0,-999.0,51,-99.99,,,-99.99,meteohub,2013-02-07 03:08:00,
2013-02-06 22:13:00,39.7,23.2,29.87,North,-999,-999.0,-999.0,51,-99.99,,,-99.99,meteohub,2013-02-07 03:13:00,
2013-02-06 22:18:00,39.6,23.4,29.87,North,-999,-999.0,-999.0,52,-99.99,,,-99.99,meteohub,2013-02-07 03:18:00,
2013-02-06 22:24:00,39.4,23.2,29.87,North,-999,-999.0,-999.0,52,-99.99,,,-99.99,meteohub,2013-02-07 03:24:00,
2013-02-06 22:29:00,39.4,23.7,29.87,North,-999,-999.0,-999.0,53,-99.99,,,-99.99,meteohub,2013-02-07 03:29:00,
2013-02-06 22:34:00,39.4,23.7,29.87,North,-999,-999.0,-999.0,53,-99.99,,,-99.99,meteohub,2013-02-07 03:34:00,
2013-02-06 22:39:00,39.2,23.5,29.87,North,-999,-999.0,-999.0,53,-99.99,,,-99.99,meteohub,2013-02-07 03:39:00,
2013-02-06 22:44:00,39.2,23.5,29.87,North,-999,-999.0,-999.0,53,-99.99,,,-99.99,meteohub,2013-02-07 03:44:00,
2013-02-06 22:49:00,39.2,23.5,29.87,North,-999,-999.0,-999.0,53,-99.99,,,-99.99,meteohub,2013-02-07 03:49:00,
2013-02-06 22:54:00,39.2,23.5,29.87,North,-999,-999.0,-999.0,53,-99.99,,,-99.99,meteohub,2013-02-07 03:54:00,
2013-02-06 22:59:00,39.2,23.5,29.87,North,-999,-999.0,-999.0,53,-99.99,,,-99.99,meteohub,2013-02-07 03:59:00,
2013-02-06 23:04:00,39.4,23.2,29.90,North,-999,-999.0,-999.0,52,-99.99,,,-99.99,meteohub,2013-02-07 04:04:00,
2013-02-06 23:10:00,40.3,24.6,29.90,North,-999,-999.0,-999.0,53,-99.99,,,-99.99,meteohub,2013-02-07 04:10:00,
2013-02-06 23:15:00,41.0,24.8,29.90,North,-999,-999.0,-999.0,52,-99.99,,,-99.99,meteohub,2013-02-07 04:15:00,
2013-02-06 23:20:00,42.1,25.3,29.90,North,-999,-999.0,-999.0,51,-99.99,,,-99.99,meteohub,2013-02-07 04:20:00,
2013-02-06 23:25:00,43.0,25.7,29.90,North,-999,-999.0,-999.0,50,-99.99,,,-99.99,meteohub,2013-02-07 04:25:00,
2013-02-06 23:30:00,44.1,26.6,29.90,North,-999,-999.0,-999.0,50,-99.99,,,-99.99,meteohub,2013-02-07 04:30:00,
2013-02-06 23:35:00,44.6,27.1,29.93,North,-999,-999.0,-999.0,50,-99.99,,,-99.99,meteohub,2013-02-07 04:35:00,
2013-02-06 23:40:00,44.6,27.1,29.93,North,-999,-999.0,-999.0,50,-99.99,,,-99.99,meteohub,2013-02-07 04:40:00,
2013-02-06 23:45:00,44.8,27.9,29.93,North,-999,-999.0,-999.0,51,-99.99,,,-99.99,meteohub,2013-02-07 04:45:00,
2013-02-06 23:50:00,44.8,28.2,29.93,North,-999,-999.0,-999.0,52,-99.99,,,-99.99,meteohub,2013-02-07 04:50:00,
2013-02-06 23:56:00,44.6,27.7,29.93,North,-999,-999.0,-999.0,51,-99.99,,,-99.99,meteohub,2013-02-07 04:56:00,